Coventry, United Kingdom

9:58 PM GMT on March 23, 2017 (GMT +0000)
Coventry

Weather History for EGBE - October, 2012

Change the Weather History Date:

Thursday, October 25, 2012

  Actual Average Record
Temperature  
Mean Temperature 50 °F -  
Max Temperature 53 °F 49 °F 66 °F (2013)
Min Temperature 48 °F 38 °F 28 °F (1997)
Degree Days  
Heating Degree Days 14    
Moisture  
Dew Point 47 °F    
Average Humidity 89    
Maximum Humidity 100    
Minimum Humidity 77    
Precipitation  
Precipitation 0.00 in - - ()
Sea Level Pressure  
Sea Level Pressure 30.06 in    
Wind  
Wind Speed 13 mph ()    
Max Wind Speed 20 mph    
Max Gust Speed -    
Visibility 5.5 miles    
Events      
Averages and records for this station are not official NWS values.
T = Trace of Precipitation, MM = Missing Value Source: Averaged Metar Reports

Daily Weather History Graph

Daily Weather History Graph

Search for Another Location

Airport or City:

Trip Planner

Search our weather history database for the weather conditions in past years. The results will help you decide how hot, cold, wet, or windy it might be!

Date:

Astronomy

Oct. 25, 2012 Rise Set
Actual Time 7:49 AM BST 5:49 PM BST
Civil Twilight 7:14 AM BST 6:24 PM BST
Nautical Twilight 6:34 AM BST 7:04 PM BST
Astronomical Twilight 5:55 AM BST 7:43 PM BST
Moon 3:53 PM BST (10/25) 3:01 AM BST (10/25)
Length of Visible Light 11h 10m
Length of Day
9h 59m
Waxing Gibbous, 82% of the Moon is Illuminated
Oct 25
Waxing Gibbous
Oct 29
Full
Nov 7
Last Quarter
Nov 13
New
Nov 20
First Quarter

Hourly Weather History & Observations

Time (BST) Temp. Dew Point Humidity Pressure Visibility Wind Dir Wind Speed Gust Speed Precip Events Conditions
12:20 AM 53.6 °F 53.6 °F 100% 30.09 in 1.9 mi ENE 15.0 mph - N/A   Drizzle
12:50 AM 53.6 °F 53.6 °F 100% 30.09 in 1.6 mi ENE 12.7 mph - N/A   Light Drizzle
1:20 AM 53.6 °F 53.6 °F 100% 30.09 in 1.9 mi NE 18.4 mph - N/A   Light Drizzle
1:50 AM 53.6 °F 53.6 °F 100% 30.09 in 4.3 mi ENE 17.3 mph - N/A   Light Drizzle
6:50 AM 51.8 °F 50.0 °F 94% 30.06 in 6.2 mi NE 13.8 mph - N/A   Mostly Cloudy
7:20 AM 51.8 °F 50.0 °F 94% 30.06 in 6.2 mi NE 15.0 mph - N/A   Mostly Cloudy
7:50 AM 50.0 °F 50.0 °F 100% 30.06 in 4.3 mi NE 15.0 mph - N/A   Mostly Cloudy
8:20 AM 50.0 °F 50.0 °F 100% 30.06 in 6.2 mi NE 11.5 mph - N/A   Mostly Cloudy
8:50 AM 51.8 °F 50.0 °F 94% 30.06 in 6.2 mi NE 11.5 mph - N/A   Mostly Cloudy
9:20 AM 50.0 °F 50.0 °F 100% 30.06 in 4.3 mi NE 13.8 mph - N/A   Mostly Cloudy
9:50 AM 50.0 °F 48.2 °F 94% 30.06 in 4.3 mi ENE 15.0 mph - N/A   Overcast
10:20 AM 51.8 °F 48.2 °F 88% 30.06 in 5.0 mi ENE 13.8 mph - N/A   Overcast
10:50 AM 51.8 °F 48.2 °F 88% 30.06 in 6.2 mi ENE 12.7 mph - N/A   Overcast
11:20 AM 51.8 °F 48.2 °F 88% 30.06 in 6.2 mi ENE 13.8 mph - N/A   Overcast
11:50 AM 51.8 °F 48.2 °F 88% 30.06 in 6.2 mi ENE 13.8 mph - N/A   Overcast
12:20 PM 51.8 °F 46.4 °F 82% 30.06 in 6.2 mi ENE 15.0 mph - N/A   Overcast
1:50 PM 53.6 °F 46.4 °F 77% 30.04 in 6.2 mi ENE 15.0 mph - N/A   Overcast
2:50 PM 51.8 °F 48.2 °F 88% 30.04 in 6.2 mi NE 15.0 mph - N/A   Mostly Cloudy
3:20 PM 51.8 °F 48.2 °F 88% 30.04 in 6.2 mi ENE 13.8 mph - N/A   Mostly Cloudy
3:50 PM 51.8 °F 48.2 °F 88% 30.04 in 6.2 mi NE 13.8 mph - N/A   Mostly Cloudy
4:20 PM 51.8 °F 48.2 °F 88% 30.04 in 6.2 mi ENE 13.8 mph - N/A   Mostly Cloudy
4:50 PM 50.0 °F 48.2 °F 94% 30.04 in 4.3 mi NE 13.8 mph - N/A   Mostly Cloudy
5:20 PM 50.0 °F 46.4 °F 87% 30.04 in 5.6 mi ENE 16.1 mph - N/A   Mostly Cloudy
5:50 PM 50.0 °F 44.6 °F 82% 30.04 in 6.2 mi ENE 16.1 mph - N/A   Mostly Cloudy
6:20 PM 50.0 °F 44.6 °F 82% 30.04 in 6.2 mi ENE 17.3 mph - N/A   Mostly Cloudy
6:50 PM 50.0 °F 44.6 °F 82% 30.06 in 6.2 mi ENE 15.0 mph - N/A   Scattered Clouds
7:20 PM 50.0 °F 44.6 °F 82% 30.06 in 6.2 mi ENE 13.8 mph - N/A   Partly Cloudy
7:50 PM 50.0 °F 44.6 °F 82% 30.06 in 6.2 mi NE 13.8 mph - N/A   Scattered Clouds
8:20 PM 50.0 °F 44.6 °F 82% 30.06 in 6.2 mi NE 19.6 mph - N/A   Partly Cloudy
8:50 PM 48.2 °F 44.6 °F 87% 30.06 in 6.2 mi ENE 16.1 mph - N/A   Partly Cloudy
9:20 PM 48.2 °F 42.8 °F 82% 30.06 in 6.2 mi NE 13.8 mph - N/A   Scattered Clouds
9:50 PM 48.2 °F 42.8 °F 82% 30.06 in 6.2 mi NE 17.3 mph - N/A   Scattered Clouds
10:20 PM 48.2 °F 42.8 °F 82% 30.06 in 6.2 mi NE 17.3 mph - N/A   Scattered Clouds
10:50 PM 48.2 °F 42.8 °F 82% 30.06 in 6.2 mi NE 15.0 mph - N/A   Scattered Clouds
11:20 PM 48.2 °F 42.8 °F 82% 30.06 in 6.2 mi NE 15.0 mph - N/A   Scattered Clouds
11:50 PM 48.2 °F 42.8 °F 82% 30.06 in - NE 15.0 mph - N/A   Clear